Theta_e
317 317 317 317 317 317 317 318 317 318 318 318 318 319 319 319 319 320 320 319 319 320 320 319 319 318 318 319 319 319 318 313 310 308 307 309 317 325 335 338 336 336 340 342 342 340 334 331 332 335 329 328 325 327 334 334 334 333 325 322 317 320 317 319 317 319 319 322 328 330 331 330 326 331 332 336 335 334 334 333 336 338 337 339 340 343 344 345
317 317 317 317 317 317 317 318 317 317 318 318 318 318 318 319 319 319 319 319 319 319 319 319 319 318 318 318 319 319 316 311 308 308 306 318 328 329 333 335 342 341 344 338 337 335 330 324 328 330 326 322 325 324 333 328 334 327 326 323 317 319 322 326 323 324 323 321 329 331 332 330 329 331 332 329 329 330 329 332 333 332 335 338 340 342 343 343
317 317 317 317 317 317 317 317 317 317 317 317 318 318 318 318 319 319 319 319 319 319 319 319 319 318 318 319 319 319 313 307 308 305 310 330 329 332 334 335 345 346 333 336 335 333 329 324 327 326 323 320 319 320 329 326 330 327 324 320 321 326 325 327 327 324 326 328 328 328 330 329 331 331 333 328 328 330 327 327 329 330 330 334 338 340 341 341
317 317 318 317 317 317 317 317 317 317 318 317 317 318 318 318 319 319 319 319 319 319 319 319 318 318 318 318 320 315 313 308 304 308 312 333 338 334 334 339 342 345 330 331 332 327 327 324 326 324 320 315 315 319 322 327 326 327 324 320 323 327 325 328 330 329 329 331 329 328 329 328 331 331 331 329 327 327 328 332 330 329 332 334 337 339 340 339
317 317 317 318 317 317 317 317 318 317 318 317 317 317 318 318 318 318 318 318 318 318 318 318 318 318 319 320 319 310 303 297 303 311 318 354 344 337 336 341 342 335 325 325 322 321 323 320 320 318 317 311 311 314 317 326 331 325 324 327 328 326 324 329 329 330 327 331 329 328 326 326 333 331 330 330 325 324 329 333 335 334 335 335 336 338 339 338
317 317 317 317 317 317 317 317 317 317 317 317 317 318 318 318 318 318 318 318 318 318 318 318 318 318 319 319 312 311 302 293 306 308 352 349 349 341 336 342 343 325 321 323 319 319 319 316 315 311 308 307 309 310 312 322 329 317 322 326 329 330 327 330 326 326 330 328 327 326 329 331 329 328 331 331 329 331 335 337 336 337 338 338 339 339 337 337
316 317 317 317 317 317 316 317 316 317 317 317 318 317 318 318 317 317 317 317 318 318 318 318 318 318 318 319 310 309 299 301 308 311 330 349 354 346 339 339 343 316 323 321 317 316 316 314 311 309 307 306 309 311 314 316 322 321 318 321 322 326 326 330 328 329 326 328 327 330 331 328 328 323 330 330 333 334 336 338 338 338 339 339 337 338 337 337
316 316 316 317 317 316 316 316 316 317 317 317 317 318 318 317 317 317 318 318 318 318 318 318 318 319 319 311 309 303 299 298 305 310 328 354 350 345 340 331 322 313 322 320 316 314 315 312 309 311 307 305 308 310 314 315 317 315 316 321 321 321 322 323 323 322 325 327 329 329 327 327 329 327 329 328 333 335 337 339 338 338 338 338 337 337 337 337
316 316 316 316 316 316 316 316 317 316 317 317 317 317 317 317 317 317 317 318 318 318 318 318 319 319 320 312 304 295 294 307 312 328 332 338 341 336 329 326 316 309 318 321 318 315 315 312 310 312 304 307 311 311 313 312 310 316 318 321 320 320 322 323 323 322 323 327 329 326 325 327 330 329 327 329 331 336 338 338 337 337 336 336 336 337 336 337
316 316 316 316 316 316 316 316 316 316 316 317 317 316 317 317 317 317 318 318 318 318 317 318 319 320 315 308 302 293 302 310 321 329 336 338 333 327 327 326 313 308 309 316 317 314 311 312 310 313 312 310 313 311 314 314 313 317 318 319 318 319 320 322 320 320 322 325 327 324 323 324 328 326 318 327 332 337 337 336 336 335 335 336 337 337 337 337
316 316 316 316 316 315 316 316 316 316 316 316 316 316 316 317 317 317 317 318 319 319 319 319 320 317 308 310 297 293 305 314 313 317 329 329 326 322 321 322 313 308 307 309 316 316 314 314 313 314 310 306 312 310 313 314 318 317 317 317 317 318 320 321 321 321 321 321 326 326 323 325 325 324 321 328 334 337 334 335 335 334 334 335 336 337 337 338
316 315 315 316 315 315 315 316 316 315 316 316 315 316 316 316 316 316 318 320 320 319 318 321 321 317 311 305 299 299 310 315 313 312 318 324 321 322 321 324 315 311 308 306 311 314 314 316 315 312 302 311 306 311 310 316 315 314 315 311 314 316 315 317 317 319 321 320 325 325 322 318 320 319 324 331 335 336 334 334 334 334 334 335 336 336 336 337
315 315 315 315 315 315 316 316 315 315 315 314 315 315 315 315 315 317 320 320 320 319 320 322 321 316 306 297 302 310 311 312 312 314 315 316 324 323 322 325 319 313 311 309 308 311 311 315 315 310 309 307 305 303 309 313 313 314 313 310 310 311 310 316 318 318 319 321 324 324 308 313 318 322 329 333 334 334 333 333 334 334 334 334 335 335 336 338
315 315 315 314 314 315 316 315 314 314 314 315 314 313 313 313 315 319 323 320 320 321 322 324 318 313 305 298 306 313 314 314 316 317 316 316 317 322 323 324 322 316 314 310 309 311 310 311 314 312 309 305 303 308 306 304 309 304 310 311 305 305 304 314 316 315 315 321 323 325 310 311 316 320 331 333 334 332 331 332 333 333 334 334 334 335 335 337
315 315 314 314 314 315 315 314 313 313 314 314 313 312 313 312 318 323 322 321 321 323 324 323 315 307 299 302 312 316 331 326 320 316 319 312 311 313 321 322 319 317 314 310 310 312 311 308 310 308 305 309 308 305 299 301 301 303 301 299 303 304 306 310 313 316 313 320 324 321 311 313 315 320 330 333 334 333 330 332 333 333 333 334 334 335 335 337
314 314 314 314 314 315 314 313 312 313 313 312 311 311 313 316 323 324 323 323 325 325 321 313 312 311 304 298 306 322 317 312 307 309 320 315 311 309 320 320 319 317 317 313 314 313 310 310 306 305 305 305 303 299 297 297 297 298 300 295 297 302 305 306 309 317 318 319 321 320 309 314 313 323 331 333 333 332 330 331 332 332 333 334 334 335 335 336
314 313 313 314 315 314 313 312 312 312 311 311 311 312 314 322 324 324 324 325 324 321 315 311 312 314 298 308 315 310 305 306 307 304 304 308 313 312 321 318 315 314 313 312 310 309 307 306 305 304 306 300 298 299 295 292 293 295 298 298 298 301 301 301 305 309 318 319 315 319 315 312 313 326 330 331 332 331 329 330 331 332 333 334 334 335 335 336
313 313 313 314 315 314 313 311 312 311 310 310 310 311 310 319 326 324 321 321 321 318 314 316 314 307 299 305 297 298 304 304 303 304 304 305 310 314 319 315 313 313 311 308 310 304 305 302 301 296 297 299 298 297 295 293 297 297 296 296 297 300 301 302 303 307 317 318 316 316 315 316 316 326 329 330 332 330 329 330 331 332 333 333 334 334 335 335
314 313 314 314 313 313 312 312 311 310 309 310 312 316 317 321 312 314 311 314 296 289 287 295 298 289 289 296 301 303 303 304 304 302 300 307 314 314 316 314 315 309 304 303 302 304 302 299 299 294 293 295 297 298 298 298 301 300 299 297 297 298 301 300 304 308 315 313 313 314 313 315 317 324 328 329 331 329 329 331 331 332 333 333 333 334 334 335
314 314 314 313 312 312 311 311 310 309 308 306 303 301 297 296 289 290 299 298 292 292 293 295 303 300 300 299 299 303 305 303 299 300 302 304 312 311 310 310 310 308 302 297 299 302 301 295 293 292 294 296 299 300 300 301 301 300 300 300 299 299 300 302 304 308 313 312 312 314 315 315 316 323 326 329 330 329 328 329 330 331 331 332 333 333 334 335
314 314 313 312 311 311 311 310 310 308 309 303 301 295 292 292 288 287 295 293 294 295 294 295 295 295 295 299 299 299 295 296 300 298 301 309 306 310 306 307 304 301 302 301 299 303 301 294 294 296 296 296 297 300 300 300 301 300 299 298 298 299 299 304 304 307 310 309 307 312 313 314 315 323 326 328 328 326 327 327 328 330 331 332 332 332 333 335
313 314 312 312 311 310 310 309 308 308 308 302 299 296 296 298 300 302 294 288 294 295 295 295 297 295 298 297 299 299 298 293 295 298 303 305 306 306 304 304 301 299 301 301 299 296 295 294 297 299 298 298 299 300 301 301 300 300 298 297 296 297 300 303 304 306 308 310 305 307 310 312 314 320 326 327 327 328 329 329 329 329 330 330 331 332 333 334
313 313 312 311 310 309 309 308 307 307 301 301 299 298 298 302 302 302 298 291 289 294 294 294 294 293 295 298 299 300 293 292 292 296 299 303 303 306 304 302 300 300 300 300 297 294 292 296 300 300 299 298 299 301 301 300 301 300 299 296 295 297 298 298 304 306 306 307 302 305 307 310 313 319 325 328 328 328 330 330 330 331 330 330 331 332 332 332
313 313 312 311 310 309 309 307 306 302 300 302 301 299 302 303 304 300 294 287 286 291 295 296 297 296 295 295 300 298 294 294 295 296 303 302 300 303 303 303 300 299 298 299 299 296 296 297 301 300 300 299 298 300 299 299 298 301 300 299 298 297 298 300 300 301 303 303 307 305 306 301 307 312 318 325 329 328 329 330 330 331 332 332 333 333 333 332
313 313 313 311 309 309 307 306 297 300 302 301 302 304 302 306 306 300 291 287 285 289 297 298 302 299 298 303 302 296 295 296 296 299 301 300 298 301 300 304 302 298 299 299 299 298 298 302 302 300 300 300 298 298 300 299 297 299 301 301 301 300 298 299 300 300 296 295 300 302 294 296 301 309 315 321 325 325 328 327 327 329 330 331 330 331 333 334
313 312 311 310 310 308 307 297 296 300 301 300 301 303 304 305 304 301 289 282 281 287 297 291 301 295 302 297 298 297 298 293 297 300 303 301 304 298 301 300 303 298 299 298 299 298 300 302 302 299 299 299 299 299 300 301 298 296 300 302 302 300 299 299 299 299 293 293 299 304 296 291 296 305 311 316 321 323 326 326 327 329 329 330 330 331 332 332
312 312 311 309 309 307 298 295 298 301 296 298 301 305 306 306 307 297 290 279 277 292 290 296 296 295 300 298 297 297 284 288 301 300 300 304 300 304 295 294 301 302 302 302 297 296 301 300 300 300 299 299 298 297 301 301 298 297 303 302 301 299 298 297 298 297 293 299 301 302 298 293 292 300 310 315 318 321 322 324 326 328 329 330 331 331 332 333
312 311 310 309 307 306 298 300 301 300 300 305 306 307 308 308 301 295 284 276 276 293 288 290 295 300 298 298 297 293 293 297 292 297 302 303 302 299 296 293 296 298 301 300 292 299 301 298 300 298 298 298 298 300 302 303 301 298 301 301 300 300 299 299 297 295 296 295 294 297 301 295 292 297 305 313 312 315 319 322 324 327 328 329 330 331 332 333
311 310 310 308 307 306 303 301 301 300 305 307 307 308 310 305 295 287 279 275 289 288 300 291 302 297 295 296 294 295 294 297 291 296 301 303 306 299 293 294 295 296 298 301 297 297 301 301 301 302 299 297 301 302 303 304 300 301 300 303 301 300 300 299 295 295 296 294 291 295 297 292 290 293 299 311 311 312 316 320 323 326 328 329 330 331 332 333
310 310 309 308 303 302 300 302 300 306 308 308 308 309 304 295 291 285 277 274 290 283 292 293 292 289 292 290 290 294 291 294 296 297 299 299 301 304 301 301 297 295 295 298 299 301 301 307 307 303 300 301 302 302 304 304 305 300 302 300 298 298 297 300 296 295 294 290 292 297 296 296 289 294 299 304 309 313 316 319 322 325 327 329 330 331 331 332
310 308 308 307 299 303 303 299 303 307 308 308 308 301 293 289 285 277 275 281 289 289 292 289 288 292 289 288 287 292 291 292 294 295 294 300 298 299 297 296 298 294 293 294 294 298 302 302 302 303 307 304 304 301 304 306 306 303 299 298 296 295 294 294 294 294 289 288 294 297 295 297 290 292 295 307 314 316 317 316 319 322 324 327 329 330 331 332
308 307 308 304 304 307 299 299 305 308 308 307 303 292 287 283 281 277 277 292 281 285 284 285 289 288 288 289 289 289 288 291 293 293 290 294 293 292 291 287 289 286 290 289 289 295 296 299 302 303 310 305 301 301 300 303 303 303 298 298 293 286 289 286 288 288 288 288 293 294 295 292 294 298 299 302 310 316 318 319 320 321 323 326 328 330 331 332
307 306 306 305 310 304 305 306 308 307 306 303 297 287 283 277 276 280 280 284 281 288 284 290 287 287 288 286 287 290 291 288 293 292 292 293 293 292 293 291 291 289 284 289 287 290 292 299 301 303 304 307 304 298 295 296 299 300 298 295 291 286 284 282 285 284 283 288 293 294 294 293 295 298 304 304 306 314 319 321 322 322 323 325 327 329 331 332
306 306 302 304 305 306 309 310 307 305 303 300 290 288 283 276 278 292 284 283 284 288 289 286 287 287 288 284 287 290 285 289 291 290 292 290 292 289 291 293 292 289 288 287 285 286 285 287 296 300 298 305 304 302 301 297 299 300 302 298 295 292 286 283 282 284 286 286 291 293 292 288 292 295 303 305 308 310 318 322 323 323 324 325 327 328 330 331
306 304 302 303 306 307 306 306 305 305 297 295 290 283 278 276 281 280 281 283 284 287 286 287 286 284 284 285 288 290 289 285 291 290 290 290 288 289 288 289 292 291 289 285 289 288 287 288 294 299 299 302 303 305 305 300 298 301 303 302 294 295 293 288 286 285 288 288 290 289 290 292 297 299 306 306 307 307 314 319 322 322 324 324 324 325 327 329
303 302 303 301 306 305 306 307 306 302 294 291 285 280 278 282 279 284 283 287 287 284 284 284 285 282 282 282 287 288 293 287 289 289 287 290 290 288 292 291 290 292 288 284 287 283 287 286 296 296 299 299 303 306 305 305 293 297 300 296 298 300 299 294 295 295 291 286 289 290 290 291 294 298 299 301 303 305 309 314 318 320 322 323 323 325 326 328
300 301 299 301 303 305 306 306 305 299 295 289 283 281 284 287 288 286 295 286 286 287 283 279 281 281 280 280 282 286 288 290 288 287 283 290 286 291 290 291 294 292 292 289 286 292 284 284 293 294 295 300 303 302 305 306 301 298 295 299 301 303 301 296 288 288 287 284 284 286 292 290 292 293 300 300 301 304 307 311 315 319 321 321 323 324 326 327
299 298 301 302 303 306 306 306 302 294 291 287 284 294 289 285 290 289 290 287 287 286 282 280 282 284 281 280 280 285 288 285 285 286 284 288 284 294 290 290 294 293 293 294 288 290 291 284 291 296 296 298 301 300 300 305 306 302 299 304 300 290 292 295 292 286 284 284 281 286 290 291 292 294 295 298 299 302 305 309 313 316 319 321 322 324 326 328
298 296 295 301 305 306 305 305 298 293 289 285 283 286 290 287 293 290 291 290 288 285 281 284 280 285 283 281 283 285 287 281 287 285 282 286 283 291 291 292 291 294 294 294 289 290 292 286 289 296 295 297 298 296 293 298 303 306 302 302 301 296 295 291 293 288 289 283 284 285 287 289 294 295 297 299 300 302 304 305 309 314 318 321 322 323 325 326
296 292 292 302 306 306 305 304 296 291 287 282 284 286 289 288 291 293 293 292 287 284 285 284 285 281 284 284 285 282 286 287 286 285 285 288 287 294 291 294 291 292 294 295 290 293 288 293 282 291 296 296 291 294 295 298 296 297 297 296 298 298 296 299 293 292 289 284 282 282 284 288 293 296 299 301 301 303 304 305 308 312 316 321 323 323 325 327
297 292 292 302 305 306 302 300 293 288 284 287 287 288 289 290 291 292 293 293 289 292 287 287 284 282 285 283 283 287 284 287 288 285 287 287 288 284 293 292 293 290 294 292 290 291 289 288 284 288 288 288 291 296 297 297 296 295 295 295 296 295 292 291 289 294 291 289 283 283 286 286 294 301 301 301 303 304 305 306 308 310 314 319 322 324 325 326
291 288 292 303 305 304 297 291 291 291 286 286 286 290 289 299 290 291 292 293 291 288 292 289 289 286 285 285 287 285 285 286 288 287 288 284 290 289 292 294 293 293 291 288 289 293 294 292 289 284 286 288 292 296 298 298 298 298 298 295 297 295 292 292 287 288 292 293 293 288 286 290 298 300 302 302 302 303 305 307 308 310 313 317 321 324 325 327
291 289 299 303 305 300 294 287 291 292 287 290 294 293 292 291 290 292 290 292 290 293 290 289 289 288 289 287 287 286 287 285 288 286 288 289 289 292 295 294 294 293 294 291 294 293 302 287 285 286 288 291 294 296 297 299 297 296 298 297 295 293 294 295 294 290 291 289 292 292 289 293 299 303 302 302 305 302 303 308 310 312 314 317 319 322 324 325
293 293 295 302 304 300 293 284 284 286 289 292 291 290 294 292 291 291 291 292 291 290 290 289 291 292 289 290 288 286 289 281 289 288 285 290 288 295 295 295 295 292 292 291 291 297 287 287 285 281 281 287 292 293 296 296 296 292 291 293 295 296 295 294 295 293 292 291 294 289 287 294 300 309 305 305 305 305 303 303 309 311 313 317 319 321 324 326
295 296 294 298 303 299 289 289 287 284 288 287 288 288 289 291 293 292 292 290 293 292 289 288 291 291 290 290 288 289 289 287 284 289 289 290 289 295 295 295 296 293 295 300 301 300 290 289 284 278 276 279 282 283 282 283 287 290 292 292 294 292 292 293 291 291 288 292 293 291 291 297 300 302 303 303 303 304 304 302 304 307 310 314 318 321 323 325
289 284 291 292 295 294 294 295 291 288 285 287 286 288 289 287 291 293 293 291 293 292 290 290 292 291 289 289 287 287 287 290 286 285 287 287 290 293 294 295 295 294 299 301 300 297 291 292 288 285 282 281 283 284 289 291 289 286 289 291 291 293 294 294 293 289 290 289 291 293 296 298 299 300 301 303 301 301 302 303 304 305 306 309 316 321 323 324
290 285 287 285 291 291 289 290 290 290 286 290 282 288 286 288 289 291 294 288 293 292 291 291 290 287 287 287 286 285 287 286 288 287 286 287 290 291 295 295 295 297 300 298 299 295 292 285 287 288 287 287 289 289 290 292 288 289 289 289 291 292 293 292 291 291 294 290 290 294 296 295 298 300 300 301 302 303 301 302 303 304 306 307 310 318 330 324
284 289 292 293 286 283 285 286 290 289 290 290 287 291 287 287 288 286 291 293 293 293 288 291 291 289 289 287 286 283 285 285 285 283 287 289 289 290 290 294 293 297 297 294 296 292 288 284 288 288 287 289 290 290 291 290 290 290 290 290 290 292 292 291 292 295 295 294 293 296 295 296 299 301 302 302 302 303 303 303 305 306 306 307 309 314 320 323
291 292 293 298 288 289 287 290 291 290 287 289 290 290 287 287 286 289 288 289 291 290 290 283 286 288 289 289 287 283 283 280 281 284 285 285 287 286 285 290 293 297 294 292 293 295 290 285 287 288 287 288 288 289 290 289 289 290 290 291 292 292 294 297 296 296 296 294 296 297 297 297 301 303 302 304 303 301 302 305 307 307 306 307 308 313 319 323
290 291 291 297 295 292 291 289 289 288 285 292 286 287 289 288 287 289 291 289 286 288 292 287 287 288 289 288 287 283 285 286 285 283 286 286 286 286 286 287 289 295 295 290 291 293 290 286 294 288 286 285 288 291 291 290 289 288 290 292 295 297 299 301 301 300 299 296 297 296 296 298 302 304 307 307 308 310 312 313 313 310 308 313 314 316 320 323
300 301 300 293 289 292 292 288 286 286 283 287 286 290 291 290 288 290 289 292 289 287 289 287 289 289 289 288 287 286 289 288 289 289 290 288 284 289 286 287 293 289 292 291 291 291 291 286 290 287 282 283 288 289 289 289 289 288 289 294 297 298 301 302 299 302 297 295 295 295 294 296 301 307 307 315 324 324 323 325 326 321 311 316 318 320 322 324
304 306 303 297 288 293 287 288 286 284 281 288 291 290 290 290 292 293 287 293 294 294 292 290 290 288 287 286 286 288 291 292 292 292 293 293 293 292 292 292 293 290 291 290 292 289 289 288 285 285 282 281 286 288 288 288 291 291 292 296 298 300 301 307 309 309 308 306 299 296 297 302 310 312 310 320 325 327 329 330 330 330 321 314 318 321 323 324
Wind_Speed
20 22 22 22 22 21 22 22 23 23 23 21 21 21 21 19 19 18 18 18 18 18 16 15 13 12 12 12 11 10 6 6 5 4 4 19 6 19 10 10 11 19 15 8 13 16 11 10 9 8 6 7 3 4 5 5 3 3 3 2 5 5 3 4 3 5 1 7 6 9 8 8 6 2 3 4 5 6 6 3 5 7 7 9 13 15 16 16
21 22 21 21 22 23 22 22 22 21 20 21 21 21 21 20 19 19 18 18 17 16 16 15 14 12 11 10 10 9 6 4 8 9 23 4 13 16 18 11 6 16 14 12 19 16 17 11 11 11 8 6 1 3 8 3 5 5 3 3 6 4 6 2 1 1 1 1 7 8 6 9 7 9 5 5 5 9 5 4 7 9 10 14 16 17 17 17
24 23 24 22 23 23 23 23 22 22 22 21 20 20 21 21 20 19 18 17 17 16 16 15 13 12 10 9 7 3 3 3 4 13 21 22 22 18 17 15 10 18 17 19 16 19 21 18 14 11 6 4 2 4 9 4 6 5 3 5 8 5 5 7 5 3 1 6 7 8 6 4 7 6 5 5 8 9 8 8 7 11 13 15 16 17 17 16
24 24 23 24 23 23 24 24 23 22 21 20 21 20 21 21 22 20 18 16 15 16 15 15 13 10 8 7 5 1 2 2 4 6 6 8 20 22 20 19 14 14 5 3 11 11 10 14 14 11 6 2 3 2 8 5 5 4 3 6 4 4 4 7 1 3 2 7 9 7 4 5 8 6 7 9 8 8 7 12 16 16 17 18 19 18 17 17
24 24 24 24 25 26 26 25 24 22 21 21 21 20 20 20 20 21 19 17 15 15 15 13 12 9 7 1 1 1 3 3 1 1 4 6 8 20 20 20 18 10 5 6 8 6 14 16 13 7 5 6 3 3 5 7 6 1 12 8 3 2 2 7 6 5 3 4 6 6 11 6 7 5 7 14 9 9 13 14 9 13 19 21 21 20 18 18
25 25 24 24 26 27 27 26 24 23 23 22 22 21 20 19 19 20 20 16 15 14 13 12 10 9 7 1 2 1 1 1 1 3 4 5 8 18 19 19 19 12 8 12 11 11 12 8 13 8 4 3 8 10 4 9 7 6 6 10 9 8 8 3 3 4 7 3 6 9 6 7 10 6 7 13 13 2 2 9 11 16 17 19 19 19 19 19
24 24 24 25 26 27 27 25 23 23 22 21 21 21 18 18 19 18 19 17 15 14 11 9 6 4 7 2 0 0 1 9 4 7 11 6 7 15 20 20 18 12 11 10 10 13 11 13 9 9 7 4 6 8 3 10 8 8 8 2 7 7 14 11 10 11 3 8 8 5 6 10 9 7 8 12 6 4 10 11 13 14 15 18 19 19 22 21
24 24 24 24 25 27 26 26 26 24 24 22 21 20 19 18 18 18 18 17 14 13 9 6 5 2 4 3 1 1 0 9 9 7 13 3 5 14 20 13 15 13 14 14 16 16 16 17 12 6 5 11 4 11 4 7 10 11 12 11 10 7 9 7 6 6 4 5 3 6 9 11 15 7 9 12 9 6 12 14 15 16 16 16 19 19 18 16
25 25 25 25 26 25 27 25 25 24 24 23 23 21 19 18 17 17 17 16 13 10 8 7 7 7 5 1 1 4 7 6 5 8 7 3 8 12 15 10 12 16 14 11 11 14 16 13 10 10 5 10 2 9 4 5 6 13 19 7 3 4 3 4 6 7 7 2 5 4 7 6 10 6 10 11 8 10 14 15 16 17 17 17 18 19 19 18
25 25 25 25 26 26 25 25 25 25 23 24 23 23 20 17 16 15 15 14 11 7 3 3 4 5 3 1 2 1 6 5 4 7 6 9 9 12 9 15 16 14 13 11 6 12 13 12 15 8 5 4 3 4 8 8 3 5 12 10 12 12 9 8 8 7 5 4 7 8 7 7 3 6 5 6 9 13 15 16 16 18 18 17 16 16 17 18
25 25 26 25 25 26 25 25 26 25 25 24 24 22 21 17 15 15 15 13 10 6 5 7 7 5 1 1 3 7 5 3 2 8 8 7 10 9 8 10 16 14 14 10 11 13 6 13 8 5 1 5 5 4 8 6 5 7 1 4 9 9 10 10 7 11 3 4 9 10 11 4 4 4 8 5 13 17 17 16 17 17 17 16 17 16 15 14
25 26 26 25 26 26 26 24 24 25 25 24 24 22 19 18 17 16 13 10 6 5 6 9 12 3 0 2 6 9 1 2 2 4 4 2 4 10 9 9 14 15 15 14 13 11 6 12 9 7 4 4 4 2 6 9 6 2 3 7 8 4 8 6 8 7 6 6 10 8 2 4 6 11 8 7 12 16 18 17 17 17 16 16 16 15 13 14
25 26 27 26 26 26 25 24 24 25 25 24 22 21 19 19 18 14 10 5 0 7 10 11 9 0 1 3 10 13 10 11 12 12 8 5 3 3 3 7 8 6 10 14 16 13 6 10 11 12 3 4 4 5 2 2 5 5 7 7 10 7 9 13 6 6 6 4 10 9 4 9 11 10 6 11 13 13 15 15 16 14 14 14 15 14 14 13
26 27 27 28 27 27 25 24 25 24 24 22 21 20 18 17 15 11 5 4 7 10 12 13 5 2 1 6 6 2 3 5 6 10 7 2 4 3 3 5 5 1 2 3 4 1 3 2 7 6 1 1 2 3 2 2 0 4 3 3 5 1 7 2 6 6 7 5 12 13 9 7 7 7 9 12 16 17 16 15 15 14 14 14 15 14 15 15
25 26 27 28 29 25 24 25 24 22 23 22 21 19 15 16 11 2 8 8 10 12 13 9 2 3 1 8 5 10 11 3 1 5 4 2 1 3 4 7 8 3 2 3 1 3 1 3 4 2 5 1 2 3 4 2 2 1 2 5 1 7 9 3 2 6 8 1 9 12 8 10 7 8 13 14 15 17 16 15 16 15 15 15 15 15 15 15
24 24 26 28 27 25 24 26 24 22 23 24 23 22 13 11 3 8 8 7 11 13 7 3 1 1 2 8 2 8 2 1 6 7 1 1 3 3 7 10 8 4 0 2 0 3 3 0 6 5 3 0 2 2 2 4 3 2 5 2 3 6 10 5 4 8 11 4 6 14 5 1 4 7 12 14 16 16 15 15 16 17 17 16 15 14 14 14
25 25 26 27 25 25 26 25 24 23 24 24 23 17 10 3 7 9 8 8 5 3 1 1 2 1 0 3 4 2 3 5 5 4 8 4 4 3 9 7 6 7 3 4 2 6 4 3 0 1 1 3 4 3 2 5 5 4 2 6 3 7 3 4 4 3 6 8 4 11 10 5 1 12 13 13 17 15 13 16 17 16 15 16 14 14 14 15
26 27 27 24 25 27 25 25 23 22 23 25 21 15 6 1 10 10 5 3 1 1 2 1 4 1 6 3 6 10 8 8 7 10 12 11 9 5 9 4 4 8 6 2 0 4 2 6 2 5 1 6 5 7 10 13 12 8 3 3 4 3 4 5 2 2 8 7 9 11 13 13 1 8 14 16 16 16 16 17 17 16 15 15 14 15 16 16
26 27 26 24 25 26 24 24 24 22 21 22 15 4 6 8 2 0 1 1 1 3 3 2 3 5 3 14 14 10 4 8 11 5 5 4 0 4 2 4 12 14 7 6 2 7 2 1 2 3 11 10 13 14 14 3 4 6 6 4 3 7 8 7 5 2 5 4 7 10 13 14 4 8 11 13 16 17 16 14 13 15 15 16 15 15 14 16
26 25 24 25 26 25 24 24 23 22 19 12 10 4 2 6 6 1 2 5 1 1 3 9 1 4 9 11 9 8 10 6 0 3 3 2 3 3 4 4 5 4 9 10 4 8 5 8 11 15 17 17 15 13 8 5 0 2 4 5 6 6 6 3 3 2 3 3 9 10 12 12 10 11 13 15 14 12 10 13 13 14 14 15 15 16 17 17
25 24 24 27 26 27 24 25 22 20 19 4 5 5 6 6 5 6 10 7 6 3 5 8 5 6 8 9 10 8 11 5 0 2 3 1 1 5 3 5 4 7 9 7 8 2 8 8 13 17 12 5 7 6 5 5 9 2 1 2 6 5 9 5 3 1 2 4 3 7 9 11 10 9 13 12 13 16 15 14 15 16 16 16 18 18 18 18
25 23 26 27 27 27 26 24 22 20 12 1 5 5 3 2 3 4 1 7 8 5 6 10 1 5 6 9 8 4 1 3 6 3 4 2 3 8 3 4 8 10 6 7 6 5 9 15 20 14 3 4 4 7 9 11 9 7 5 3 3 6 2 6 6 2 1 2 6 2 7 11 10 9 10 14 18 17 17 20 20 19 17 15 16 18 17 13
25 24 26 27 27 27 26 22 22 15 4 6 4 2 3 0 2 1 2 1 8 3 3 3 0 4 7 5 0 4 3 1 2 8 3 2 2 5 4 6 8 6 7 9 13 8 6 14 20 6 7 7 5 6 9 9 9 9 8 6 9 2 4 6 6 1 2 6 2 4 7 9 7 3 11 17 19 16 18 19 18 19 21 20 21 20 17 16
25 24 25 27 27 27 25 23 16 3 3 0 1 1 1 1 2 2 1 2 4 8 1 2 1 3 5 6 1 1 1 2 1 9 3 1 2 3 3 9 7 6 11 13 13 13 14 3 4 8 8 10 10 8 9 9 10 9 10 9 7 5 4 2 3 2 2 2 2 1 2 5 3 3 6 11 12 8 10 11 9 11 14 16 11 10 13 17
26 26 24 26 27 26 24 18 5 3 3 0 2 3 1 0 2 0 3 3 1 5 2 1 1 1 5 2 0 2 1 1 5 4 3 1 4 0 4 3 4 11 7 9 8 9 11 11 5 16 13 10 10 9 11 8 8 8 10 11 8 5 5 3 3 5 6 4 2 7 2 6 5 8 13 10 9 12 9 11 14 16 15 11 13 17 16 15
27 27 25 25 26 25 20 2 3 4 5 1 1 2 1 3 3 1 3 3 2 2 0 2 1 1 0 6 5 2 1 1 3 4 2 3 4 3 2 4 4 9 9 8 9 5 9 4 8 11 14 11 11 10 8 8 9 6 10 9 9 7 4 2 1 1 3 5 2 0 8 6 5 4 9 7 12 17 11 14 18 16 13 13 16 15 16 17
28 29 27 26 23 20 6 2 3 3 3 3 4 5 4 5 2 2 1 2 1 1 1 2 2 0 2 7 9 2 3 8 12 2 4 3 3 1 3 5 1 2 4 2 0 9 5 8 6 5 8 13 11 12 8 13 8 13 3 8 6 5 4 3 3 4 4 3 4 1 2 2 5 7 6 6 13 16 15 16 17 15 14 17 17 15 16 16
29 27 28 26 22 9 3 1 4 3 2 8 7 8 6 4 1 2 2 1 2 2 3 5 2 4 4 9 8 6 2 5 5 5 9 13 2 1 3 3 2 4 5 7 14 1 11 8 12 9 7 10 14 15 9 12 12 3 5 8 7 8 7 5 4 3 3 2 10 2 3 2 4 8 5 7 8 8 14 18 17 16 17 19 19 17 17 18
28 27 27 27 19 3 2 1 1 2 7 8 8 7 6 2 2 3 2 1 0 2 4 1 3 1 7 4 6 7 2 4 3 6 13 6 7 4 1 5 3 5 5 10 10 1 5 7 9 10 8 11 8 7 10 12 11 5 3 8 6 5 4 7 6 5 3 4 12 8 6 5 6 6 5 0 8 13 16 17 16 17 20 20 19 19 17 15
28 27 25 25 8 1 1 1 2 5 7 8 8 8 2 4 2 1 2 2 1 2 3 2 3 8 6 6 3 11 8 5 4 6 4 5 13 9 3 3 2 3 7 3 7 8 2 6 12 10 11 6 6 6 8 11 12 3 5 1 1 4 4 2 4 4 1 11 14 9 8 8 6 8 10 7 8 10 10 10 12 14 16 16 17 18 15 14
26 28 25 18 3 3 4 5 10 9 9 7 8 4 3 5 2 2 1 1 2 0 1 4 5 5 9 11 8 8 2 6 11 11 11 13 15 16 12 5 9 3 2 4 4 6 7 3 6 3 9 4 6 4 6 10 11 6 4 5 1 3 2 3 0 1 7 14 7 7 9 10 11 7 7 9 5 11 14 14 16 16 17 18 17 16 16 17
27 28 27 13 4 2 3 7 12 11 9 8 4 4 3 2 5 1 2 1 1 3 3 4 4 2 7 3 7 11 7 5 9 9 9 7 11 13 11 7 5 0 10 5 7 1 8 11 2 4 9 14 6 8 5 8 8 10 5 7 9 3 3 6 3 10 14 11 2 4 9 3 16 9 6 9 11 11 11 13 15 17 20 20 20 20 17 18
27 27 25 6 3 1 4 6 8 9 9 5 2 3 2 2 1 1 1 4 1 2 3 1 3 5 4 3 7 8 4 7 10 7 6 4 5 7 10 11 7 2 4 3 2 2 6 4 9 7 2 9 11 13 5 6 8 9 10 8 9 6 6 8 7 2 4 3 3 1 5 9 1 6 17 17 14 13 11 13 14 16 20 20 20 18 16 16
27 25 9 7 5 5 6 7 7 8 9 4 4 3 5 3 1 3 1 1 1 1 1 0 3 4 8 6 4 7 5 3 10 7 7 1 4 3 5 11 17 12 5 3 2 1 6 5 12 11 6 7 11 12 10 6 8 10 6 10 8 6 4 6 4 11 8 6 5 3 5 6 9 7 10 18 18 13 11 13 14 15 15 16 14 12 14 13
30 15 5 7 2 3 5 8 7 7 3 6 8 5 5 1 1 1 1 1 2 1 1 2 0 3 4 5 4 4 3 2 7 7 7 9 6 5 6 8 11 7 3 2 1 2 4 6 3 4 5 4 11 6 7 6 7 9 9 5 5 13 6 4 5 4 3 2 5 4 7 5 7 3 4 9 13 12 12 14 13 14 13 8 8 12 14 15
16 10 3 2 5 8 10 9 9 6 4 7 7 5 3 1 1 0 1 2 0 1 2 3 3 5 1 3 1 6 7 2 9 5 2 6 6 5 4 5 9 11 7 3 2 2 4 5 2 12 13 5 6 6 7 11 9 5 8 13 11 7 7 2 2 1 2 2 14 3 5 4 6 6 6 5 7 10 10 13 13 14 12 9 13 15 16 17
11 9 5 8 7 13 13 9 7 2 5 6 6 2 2 0 1 1 4 2 2 0 1 3 3 2 2 3 2 4 5 3 5 3 3 1 3 3 3 4 9 8 8 0 3 2 1 10 15 7 9 2 8 10 5 13 6 5 9 10 4 2 4 4 7 1 4 7 7 1 12 2 6 11 0 4 6 12 11 12 14 14 9 11 14 14 16 17
8 4 3 3 8 12 12 10 5 4 5 6 3 4 1 3 2 2 2 3 2 3 2 1 1 5 1 2 4 3 4 4 6 4 3 5 4 3 4 2 5 7 9 7 1 1 1 6 6 2 8 6 13 5 4 8 11 10 8 9 11 5 10 8 2 9 7 8 2 4 1 5 10 9 1 6 8 11 12 12 11 12 9 12 14 15 15 16
3 1 2 5 13 13 12 10 4 5 5 7 2 2 3 0 0 2 4 3 1 2 2 1 2 2 1 1 1 2 2 2 3 4 2 3 2 2 6 3 3 8 10 7 1 2 1 1 7 1 6 10 8 2 10 7 8 10 8 11 6 5 7 7 10 2 2 5 0 8 1 8 6 6 10 11 12 13 14 12 12 14 14 14 13 13 14 14
6 3 2 6 15 14 13 3 7 7 7 4 0 0 1 0 3 5 7 3 2 2 0 1 1 1 1 0 0 1 1 2 1 3 2 3 1 3 8 4 4 7 9 8 2 2 1 0 2 8 10 6 3 3 10 8 9 7 5 5 4 3 2 6 0 6 6 4 4 2 5 3 7 7 10 13 13 13 14 15 14 14 14 14 15 15 14 15
2 1 3 6 17 15 5 10 9 6 3 0 1 1 3 2 3 4 8 7 2 1 3 1 1 1 0 2 3 1 1 1 1 0 1 3 2 2 4 6 5 7 5 4 2 4 1 2 3 7 10 3 8 2 8 8 7 4 5 7 7 8 3 8 9 1 5 4 4 3 10 3 8 3 9 12 14 15 15 16 15 15 14 14 15 14 14 15
3 5 5 12 14 14 6 7 5 1 3 3 3 2 3 8 2 7 4 6 4 3 1 2 1 2 2 0 0 1 1 1 1 1 1 2 2 2 4 5 5 6 4 1 2 4 1 1 0 7 5 9 16 20 15 10 8 7 2 4 3 3 4 5 8 6 2 7 2 3 3 9 7 6 9 10 10 10 12 12 13 13 12 13 15 16 15 16
5 2 6 9 15 4 9 6 2 5 2 2 5 1 3 2 3 4 3 5 3 4 2 3 1 1 1 1 1 0 0 1 2 3 1 1 4 2 3 5 6 6 5 1 5 2 7 1 3 6 7 11 14 14 9 3 6 1 0 4 6 2 3 5 5 6 6 1 6 7 10 10 4 4 7 7 4 6 6 9 13 10 8 9 11 11 12 12
2 4 7 7 15 3 12 5 4 5 3 5 2 2 4 2 6 7 4 6 4 4 2 3 2 3 1 2 1 1 1 1 1 1 2 2 3 2 2 4 7 5 4 4 3 6 4 3 3 4 5 6 8 4 3 4 7 5 5 6 5 6 9 7 1 1 5 9 10 8 12 13 3 1 1 2 4 3 4 8 8 10 9 8 12 13 13 14
4 2 3 6 10 10 7 1 1 0 4 5 4 8 8 3 4 2 3 2 3 2 2 2 1 1 2 2 2 2 1 1 1 2 1 1 3 1 2 3 6 6 4 6 6 6 3 2 3 3 2 6 9 9 2 8 8 11 6 7 7 9 12 10 4 2 8 5 8 8 9 10 2 3 1 2 3 4 4 4 5 6 6 6 6 9 11 12
4 4 4 5 5 6 6 2 3 1 1 4 3 2 3 4 3 4 4 1 5 4 1 1 3 1 5 6 3 3 1 0 1 2 1 2 2 1 4 3 4 6 7 10 7 6 2 1 3 4 5 7 2 3 5 4 7 6 14 15 15 8 3 3 3 3 11 3 7 6 8 14 3 4 5 6 5 8 7 5 7 8 9 9 7 9 12 14
1 4 3 6 5 5 3 3 5 4 3 2 1 2 4 4 3 3 6 1 5 6 2 1 2 4 3 4 2 3 2 2 2 2 4 4 2 2 4 5 4 6 4 7 9 5 1 1 3 4 6 9 8 9 10 9 13 14 13 17 15 11 8 5 5 7 2 5 12 4 8 8 17 10 8 9 10 10 6 7 8 7 10 12 12 11 13 14
3 1 2 2 1 3 6 6 7 6 5 1 1 0 3 4 5 5 4 2 4 3 4 2 3 2 1 1 3 2 1 2 2 3 2 1 2 2 4 2 3 2 4 4 6 2 2 3 3 5 5 7 7 7 11 11 11 12 14 16 17 16 9 9 9 9 7 8 10 3 6 7 18 14 8 10 9 9 11 12 13 12 9 8 9 11 14 17
2 0 1 1 1 0 2 4 4 4 6 3 0 4 3 3 3 2 2 4 2 2 3 2 4 7 7 5 0 2 1 2 3 2 1 3 2 4 4 2 3 1 2 3 5 1 3 4 5 4 5 4 8 9 11 11 9 9 12 14 14 14 15 11 14 13 13 10 7 8 11 14 16 13 5 3 3 7 6 3 3 5 10 11 11 14 17 17
2 2 2 3 1 1 2 2 2 4 4 4 2 2 1 2 5 6 3 1 2 3 1 1 6 7 7 6 1 2 3 3 4 5 2 3 7 3 4 5 2 1 1 1 3 4 1 4 1 1 2 4 7 7 6 6 6 10 12 11 11 11 14 15 13 12 9 8 12 16 11 14 5 4 3 3 3 2 3 4 6 6 6 9 12 15 15 15
1 1 1 2 3 2 0 2 3 3 3 3 2 4 4 6 5 2 5 2 4 2 2 5 6 7 5 3 4 5 6 4 6 9 10 7 10 3 3 2 3 2 3 1 1 2 3 4 4 1 4 5 3 2 6 7 9 11 12 7 7 9 9 7 1 3 4 7 7 9 8 12 3 13 6 4 7 8 7 9 9 9 7 8 11 12 13 14
1 0 1 0 1 2 3 2 2 1 2 2 4 5 4 6 5 3 5 3 1 2 3 4 7 3 5 3 7 6 5 9 11 12 11 10 10 10 10 9 5 5 3 4 2 2 2 3 2 2 0 4 5 2 10 13 6 3 4 4 6 3 7 6 1 6 5 3 3 11 13 3 11 12 6 5 5 8 9 10 10 11 10 7 8 10 13 13
Wind_Direction
342 344 344 340 339 335 335 335 335 333 331 328 324 322 318 317 315 314 314 315 314 312 311 313 314 313 313 310 313 315 321 315 308 271 210 242 146 216 174 201 183 191 212 135 124 129 142 145 141 157 138 153 210 166 205 230 260 178 207 233 262 236 255 232 194 190 207 135 163 169 172 130 144 159 150 124 82 120 143 89 90 44 68 106 121 126 137 141
343 343 339 337 337 338 336 335 335 332 329 328 325 319 317 315 313 312 313 314 312 308 308 308 311 312 313 312 313 315 326 301 279 255 238 154 187 192 205 201 157 179 173 147 150 154 142 156 151 156 145 170 187 195 150 214 191 203 201 211 247 196 232 204 254 236 122 223 157 172 170 154 165 144 194 130 142 148 125 105 103 89 96 109 123 135 143 149
345 341 341 336 337 337 337 336 333 333 331 327 321 317 315 314 312 310 312 311 307 304 302 303 308 310 313 314 301 335 32 310 254 252 262 236 228 190 198 190 156 177 173 162 170 155 158 161 149 146 161 133 191 177 172 202 158 237 256 233 245 222 272 280 267 271 290 138 147 158 187 151 156 145 175 149 155 166 158 143 120 127 133 134 136 143 148 153
342 339 337 337 336 337 337 336 335 333 328 326 322 317 315 311 311 310 306 304 300 300 299 300 303 308 310 313 322 300 215 244 278 253 246 273 207 198 181 183 162 178 166 168 162 153 122 125 144 148 143 159 183 210 177 195 173 169 215 219 239 233 240 273 282 264 125 154 157 152 152 131 169 154 161 139 128 198 193 181 167 161 150 145 149 150 154 158
340 339 337 335 337 339 339 338 335 332 328 323 318 312 311 313 309 306 304 299 299 296 295 297 301 297 304 314 83 75 163 3 280 232 278 355 188 193 179 172 163 157 158 117 105 103 140 140 147 149 138 168 173 205 234 209 218 140 223 224 253 342 224 277 302 286 115 121 130 134 159 178 144 142 171 159 161 195 200 193 161 148 148 150 155 157 158 163
339 340 334 334 337 338 338 337 333 329 327 323 316 312 317 308 303 300 300 298 294 292 291 295 294 287 279 181 112 150 25 313 339 317 340 41 158 179 181 163 161 145 137 144 150 144 138 144 141 150 165 133 176 190 202 203 200 247 257 241 238 258 281 274 318 18 110 128 150 165 188 122 163 176 188 172 193 220 157 154 147 154 155 152 150 155 161 167
340 336 334 334 336 338 338 335 331 329 324 318 314 316 309 307 303 298 298 297 292 288 287 290 282 284 281 124 30 44 131 283 334 258 326 347 169 165 167 163 152 145 152 154 145 144 160 155 162 171 154 168 213 196 175 182 211 242 258 218 243 227 242 262 282 286 263 155 196 176 144 162 166 169 187 198 187 118 131 135 134 140 147 150 154 167 169 171
338 337 335 334 333 336 338 335 332 328 323 318 315 310 312 308 305 299 296 296 291 289 291 274 272 276 108 111 124 334 100 250 264 292 306 29 137 151 152 152 147 153 160 174 159 158 155 161 176 145 168 175 202 185 186 160 193 224 252 245 261 273 269 294 291 284 249 214 121 138 173 187 186 174 148 216 183 130 129 129 137 143 152 161 160 168 170 170
337 337 336 335 333 334 338 334 330 327 323 319 315 313 312 311 306 301 296 294 296 291 286 272 248 241 220 125 91 340 264 236 235 313 339 61 123 132 142 143 161 158 169 169 180 159 150 182 161 169 198 194 183 181 182 147 218 216 231 240 273 254 277 260 270 265 244 194 164 136 221 223 192 104 193 203 166 141 132 135 141 147 155 165 171 169 170 173
336 335 336 335 333 333 334 333 330 326 323 320 317 314 315 314 308 300 302 299 295 294 276 230 193 174 120 96 71 233 265 177 30 7 29 87 108 135 174 149 162 161 158 184 172 165 170 175 172 177 120 209 170 190 173 202 215 184 239 258 269 268 281 276 265 268 247 217 167 193 207 228 195 183 244 194 159 139 138 143 150 153 164 170 171 175 177 174
334 335 334 333 334 332 332 333 329 325 324 321 317 316 313 318 314 308 306 299 289 276 223 190 188 163 126 264 122 225 252 96 72 34 48 92 116 151 183 174 165 163 167 172 191 183 169 162 168 147 4 226 156 249 178 222 268 293 217 253 247 255 251 256 257 256 236 253 191 192 215 201 176 225 227 181 151 150 147 151 157 162 166 172 174 176 178 182
335 334 334 333 332 332 331 330 330 326 324 321 318 311 318 320 320 312 307 304 286 205 168 172 168 182 103 102 201 224 271 139 354 15 43 98 170 189 188 184 177 168 161 174 196 196 177 164 154 170 186 138 183 118 247 241 256 267 319 290 276 291 279 238 236 243 185 242 184 182 232 252 171 217 214 156 151 154 152 158 162 167 170 171 174 175 179 183
337 335 334 333 332 332 330 329 330 327 324 321 316 313 319 324 317 313 306 302 143 154 154 150 153 70 92 290 230 247 296 307 319 324 303 214 217 198 179 182 201 184 177 174 187 192 177 163 171 182 216 142 171 147 276 166 220 233 246 244 293 299 287 267 213 225 192 228 176 135 223 227 220 213 154 156 152 150 150 161 166 167 170 171 174 179 181 183
338 336 334 334 333 332 329 330 330 327 322 320 314 314 324 322 317 310 342 148 133 141 150 146 126 128 114 247 268 281 255 263 317 305 305 276 166 184 161 155 192 221 23 51 32 38 185 190 177 191 13 159 202 309 2 4 31 182 216 154 230 338 269 275 171 193 195 186 167 163 222 248 231 201 164 161 154 156 165 169 170 169 171 174 178 179 182 187
335 334 334 334 333 331 330 332 330 326 324 319 317 315 328 323 312 354 116 112 133 144 143 135 97 102 54 266 264 273 263 256 313 316 287 61 123 99 176 141 177 202 79 64 73 112 107 89 138 194 238 245 288 353 328 13 347 244 135 239 153 170 263 251 222 164 191 232 176 165 236 230 211 192 171 164 166 162 165 171 173 172 175 177 179 182 184 189
335 334 333 333 331 332 332 332 332 327 326 320 319 318 330 314 355 112 131 132 148 146 127 81 206 147 293 306 284 304 330 33 337 328 276 110 202 221 176 158 154 181 48 313 58 130 146 329 184 203 235 322 174 151 324 351 314 327 188 270 204 166 242 342 240 196 195 173 194 180 226 138 253 178 171 170 167 172 166 173 176 178 177 178 182 183 185 185
336 336 334 331 331 333 333 331 331 330 325 320 320 318 344 330 107 108 117 124 136 132 73 108 155 149 55 237 273 19 347 294 313 318 314 250 220 211 136 122 158 161 96 348 78 121 135 175 273 221 254 195 163 126 187 265 282 271 219 211 199 183 219 236 295 280 212 163 196 213 227 220 225 163 172 176 172 172 172 176 180 180 181 182 182 185 185 188
334 336 334 330 332 333 332 331 333 331 326 321 321 305 307 61 108 104 89 43 82 6 354 310 125 109 275 332 4 314 313 300 330 308 291 285 200 169 151 151 112 135 112 41 312 133 176 191 135 218 166 207 171 180 183 214 202 198 180 192 249 271 214 224 147 266 166 201 186 201 222 235 240 173 171 180 181 176 182 180 180 181 182 182 186 189 189 190
332 332 331 332 332 332 333 331 334 333 328 318 316 355 95 127 24 269 80 270 1 7 18 343 37 35 270 297 303 283 285 293 290 268 295 360 76 153 172 81 126 132 151 149 258 155 156 106 110 213 217 198 208 198 205 173 149 197 167 186 173 191 236 222 238 248 149 208 221 195 211 228 199 188 186 182 182 185 189 183 180 184 183 185 187 191 192 196
330 327 329 333 335 332 334 332 332 332 334 338 349 8 1 14 7 339 331 353 117 178 210 272 116 266 304 292 288 285 308 285 189 278 310 319 61 153 174 120 126 106 129 178 157 198 140 182 195 204 210 207 205 205 199 224 114 124 169 179 217 219 270 280 239 230 161 159 223 220 221 221 207 187 188 186 187 195 184 180 187 187 186 188 191 193 196 198
329 329 331 333 335 331 334 333 332 329 332 327 328 43 45 352 9 333 339 296 271 252 245 263 217 220 242 289 298 335 354 337 7 301 264 197 111 123 213 121 139 149 183 159 146 207 150 204 224 222 216 207 208 192 190 226 265 227 201 190 232 206 238 245 254 111 201 176 268 228 237 233 217 196 188 182 182 195 192 190 193 190 191 192 192 195 198 202
329 330 333 333 334 331 332 331 331 327 315 324 39 63 118 96 167 227 40 323 310 238 238 261 262 269 272 252 258 288 174 307 338 336 307 104 143 162 259 181 166 182 159 132 108 145 190 213 226 218 149 169 174 171 184 205 224 253 229 230 269 258 263 285 265 200 234 149 263 232 219 240 231 201 184 182 191 199 196 192 192 187 191 195 198 199 197 186
329 327 334 332 333 329 330 326 327 323 2 29 21 38 71 44 284 272 159 238 275 266 258 295 314 267 290 270 305 93 49 334 313 309 298 29 103 221 165 191 186 155 158 169 178 163 205 232 232 142 170 171 188 172 178 195 213 221 230 224 226 207 162 247 256 77 207 186 232 218 209 243 240 183 196 199 194 200 201 199 197 189 188 193 197 194 192 190
328 328 332 332 330 329 326 325 314 351 28 72 180 108 128 167 318 18 86 260 302 316 212 241 230 254 293 337 314 80 98 276 134 324 307 17 150 198 173 202 178 179 194 185 192 190 208 285 158 142 163 185 194 187 178 187 213 216 217 225 228 210 228 185 252 311 302 305 181 96 295 306 250 159 210 224 220 221 213 209 210 212 212 202 193 195 197 193
328 330 332 331 330 326 323 322 46 334 302 79 214 243 169 269 295 145 95 338 16 279 242 320 202 278 310 273 335 318 235 293 225 239 278 37 305 251 225 177 177 213 190 185 199 221 244 252 131 157 191 185 193 201 203 179 221 229 230 217 221 219 237 304 323 1 12 342 289 164 263 271 264 212 208 199 187 217 205 200 210 208 203 184 191 201 199 204
330 330 333 333 329 327 318 14 4 320 359 309 8 43 72 326 261 155 102 81 328 270 317 349 175 353 195 338 341 186 124 301 223 262 227 224 215 237 315 232 188 219 187 163 197 224 231 199 167 184 174 186 197 211 203 173 217 211 228 191 209 211 186 104 285 106 247 225 273 95 200 266 319 250 227 187 190 210 196 204 211 207 197 196 206 200 197 197
332 331 333 335 333 332 18 354 286 312 19 317 319 335 332 305 227 140 46 348 20 2 49 285 5 323 20 338 320 354 58 309 322 320 331 306 299 183 202 268 245 180 154 141 106 221 175 190 178 210 176 177 194 214 197 181 192 235 174 176 172 198 196 175 191 210 241 252 276 275 131 199 292 278 230 196 199 204 200 212 212 204 198 206 209 202 199 198
333 331 334 335 335 347 160 207 353 17 264 286 315 317 320 286 92 58 86 32 297 18 11 315 22 296 10 309 347 32 185 309 350 327 338 323 95 306 154 229 230 199 171 164 214 24 173 196 183 191 187 189 201 205 183 180 198 218 146 133 171 182 203 194 183 227 239 14 278 220 152 237 252 267 289 162 208 226 215 213 210 204 203 209 208 205 201 199
334 331 334 337 336 1 143 122 140 310 302 302 305 313 311 54 101 95 114 159 213 60 152 44 5 8 332 327 40 8 331 19 5 294 312 301 1 204 104 234 210 274 277 201 213 267 215 181 183 186 181 210 209 197 186 178 213 226 150 162 156 163 179 177 184 194 245 231 254 238 174 221 271 274 293 319 204 212 216 218 215 207 206 207 207 209 204 196
336 332 333 338 340 17 7 69 209 248 290 307 308 308 14 69 39 49 39 230 47 331 336 283 1 320 320 349 42 6 21 353 335 308 345 12 358 23 327 81 44 279 264 265 237 213 220 189 170 190 207 193 179 202 175 185 209 135 129 78 100 149 157 128 174 163 194 241 238 228 178 185 264 241 215 191 216 202 217 221 218 215 217 216 214 209 200 193
334 331 328 341 29 309 300 338 314 325 313 308 316 314 84 36 119 110 175 241 43 263 2 1 357 341 2 30 360 352 4 349 351 360 359 8 11 29 14 29 4 352 327 272 242 241 236 257 184 221 188 155 161 200 199 188 194 156 164 174 68 296 58 147 279 119 214 249 234 214 184 173 232 261 264 235 223 203 202 209 210 207 209 212 210 208 202 198
333 327 324 331 231 348 26 317 302 313 308 311 340 31 82 248 9 92 222 15 78 320 56 322 345 347 353 354 45 353 351 334 3 8 11 11 41 49 25 58 332 21 235 215 256 223 237 223 215 271 187 175 162 190 218 195 187 191 145 148 178 250 135 236 124 219 218 233 243 180 146 213 232 236 242 229 231 234 209 209 210 205 210 209 209 205 201 199
330 324 316 293 220 262 225 251 294 301 308 312 52 61 70 109 193 279 344 330 225 58 295 66 303 7 345 25 35 353 328 35 341 10 360 8 68 86 66 46 4 56 217 357 321 180 250 199 218 229 255 192 167 195 160 201 191 186 189 171 173 183 192 215 220 312 317 287 260 122 153 234 134 246 226 239 232 222 214 218 216 210 211 208 207 202 199 199
327 320 320 293 284 230 263 294 301 319 327 357 69 44 47 69 203 69 34 257 286 2 301 304 327 354 25 51 18 19 355 339 6 343 7 342 30 21 9 29 22 7 64 291 66 341 219 189 224 196 223 163 197 198 179 170 166 197 184 173 195 183 171 209 188 213 224 217 251 174 166 225 158 250 198 223 233 221 220 218 218 218 217 214 206 198 199 199
321 300 281 292 271 235 271 313 323 333 2 29 38 81 105 202 221 221 286 304 286 352 308 324 26 37 359 25 355 39 77 298 351 347 42 43 14 18 14 4 8 22 286 101 318 58 257 282 324 332 341 299 197 203 159 140 175 197 181 170 164 215 117 185 203 166 218 234 263 231 197 181 186 246 265 225 222 217 215 225 223 221 218 191 166 184 193 197
323 331 334 315 340 336 343 338 337 3 57 46 68 49 94 149 356 230 263 186 275 110 294 359 57 54 11 351 353 13 10 100 332 357 37 84 29 32 24 18 12 17 22 68 323 14 333 267 314 335 322 307 255 184 191 155 202 188 156 203 206 114 175 222 287 222 101 92 240 94 285 281 299 320 242 226 224 232 219 222 224 226 214 175 186 192 194 195
345 338 15 326 344 341 336 337 334 24 62 84 90 77 197 91 338 249 342 323 253 157 62 69 331 76 347 347 1 0 352 37 332 5 343 32 41 11 355 64 25 358 8 84 323 263 54 282 297 312 306 311 8 314 226 185 138 132 190 203 113 115 117 175 224 337 205 213 252 120 223 255 159 246 309 181 197 224 222 223 225 228 205 183 199 198 195 193
316 309 257 293 330 332 328 331 347 53 77 77 52 94 329 72 350 59 302 347 360 33 82 105 318 88 344 64 338 355 322 69 328 20 295 349 115 63 71 343 27 359 333 332 175 289 63 315 291 207 239 296 338 314 272 220 163 185 201 140 171 166 195 201 174 229 217 231 273 285 210 232 192 231 174 191 197 220 227 226 224 231 208 203 207 203 200 196
266 328 28 333 338 338 326 334 70 70 68 63 347 66 347 169 44 22 300 266 149 115 70 345 150 338 122 36 250 331 6 69 348 331 18 327 63 334 76 333 326 343 328 337 359 290 305 174 298 302 49 312 300 222 216 211 226 206 111 182 169 140 212 163 201 161 130 259 128 274 68 242 213 211 183 198 201 206 212 222 223 219 214 208 208 202 198 192
359 29 343 338 341 339 324 359 54 48 64 94 261 97 257 12 332 329 349 1 28 73 85 100 23 96 18 257 72 24 346 100 35 293 33 353 352 63 38 43 355 326 327 316 238 335 340 91 248 292 340 341 280 216 219 190 195 209 198 182 183 217 234 182 249 191 198 192 207 217 269 261 245 209 177 193 200 207 200 209 216 217 216 212 211 202 194 193
307 126 263 333 342 334 345 45 44 30 79 339 82 305 316 17 339 341 346 15 67 80 123 127 111 112 256 34 347 358 13 50 27 14 294 339 12 292 65 26 341 330 314 313 334 323 3 30 263 315 343 317 260 314 47 43 37 351 239 207 177 178 164 171 237 119 176 202 224 182 255 267 270 202 186 196 206 197 205 200 209 216 211 207 213 209 195 195
3 24 321 340 334 342 53 53 18 19 73 55 343 338 326 337 31 340 5 356 65 32 50 88 15 116 10 21 203 341 54 205 240 107 296 212 346 335 355 16 344 304 323 332 298 296 285 247 4 296 235 274 273 280 278 293 286 253 228 267 214 174 137 174 214 240 158 225 137 171 310 255 246 201 207 198 195 213 204 202 211 217 210 203 211 209 200 197
31 260 281 306 333 1 68 64 16 32 21 315 302 257 286 12 16 329 10 2 18 353 16 50 10 47 346 41 292 28 325 223 152 204 186 233 263 299 351 337 331 326 335 340 332 289 311 97 307 286 287 260 263 258 283 279 196 246 226 356 342 302 282 246 216 183 188 223 203 241 253 260 260 213 218 227 210 211 220 195 206 221 215 198 210 216 208 205
319 302 320 317 339 34 70 64 14 355 1 325 17 339 334 36 26 7 16 22 17 358 23 35 353 26 8 340 287 11 302 35 173 252 315 241 271 81 346 331 341 338 12 357 345 323 22 287 93 343 351 334 317 39 103 18 45 51 328 321 303 307 355 322 72 93 211 196 193 172 240 254 257 6 281 314 262 245 207 238 224 219 217 198 201 206 203 204
286 249 251 303 353 34 78 63 90 92 12 351 326 14 360 10 15 16 331 11 350 43 18 40 316 270 45 303 339 337 307 137 323 257 244 197 238 157 219 330 335 324 313 328 324 320 231 250 84 110 147 196 213 211 113 334 333 312 285 311 331 0 341 1 245 184 220 231 176 205 237 245 199 152 221 210 303 308 272 254 265 247 243 217 200 212 212 205
5 10 334 338 5 27 73 100 93 72 114 12 15 349 351 345 341 331 14 335 28 356 71 218 351 1 34 3 19 350 310 357 150 259 137 261 276 323 230 274 311 318 317 335 344 350 240 225 158 174 177 231 278 276 256 241 299 306 309 310 302 316 289 251 268 283 234 182 200 234 220 253 205 241 251 262 200 201 235 256 242 245 246 243 224 211 206 203
276 71 338 343 330 40 41 16 32 33 13 311 58 332 11 359 310 312 346 53 354 4 335 62 42 22 355 358 350 312 250 326 302 301 237 237 236 255 223 231 274 292 331 340 355 335 295 339 237 195 224 245 268 279 288 283 282 281 290 292 294 290 291 276 235 238 57 113 249 200 246 259 259 224 210 223 245 257 233 226 243 241 237 228 220 212 209 210
57 288 100 222 96 314 1 353 7 346 327 9 270 29 9 358 6 10 322 26 347 0 35 308 39 57 322 330 291 265 297 270 270 244 322 276 343 296 302 232 259 276 2 347 356 346 278 228 239 195 236 239 258 277 278 280 264 268 270 273 280 284 288 261 251 241 276 230 245 224 233 238 260 263 231 214 213 227 234 227 221 227 233 234 231 220 209 205
117 150 131 264 84 171 166 260 320 344 323 318 92 37 348 9 9 17 312 311 346 327 55 333 318 334 323 331 6 255 281 344 300 300 271 285 246 314 300 326 295 55 85 354 338 307 302 263 254 251 264 262 270 264 270 262 259 259 256 256 260 272 275 267 256 247 238 257 308 256 231 233 249 266 290 292 204 213 235 270 295 243 228 226 218 215 209 202
18 29 339 332 213 291 293 347 334 5 4 339 26 289 268 334 356 335 316 282 325 296 47 340 305 316 321 314 296 216 241 214 244 278 249 280 289 224 248 217 192 345 99 43 330 314 288 274 3 68 298 275 271 270 255 240 264 277 267 269 274 278 280 263 246 248 233 261 254 260 257 259 256 35 342 307 328 294 314 303 274 268 256 218 208 207 202 192
251 69 341 331 348 294 357 19 360 355 15 336 41 350 345 16 351 352 291 239 210 266 337 306 297 312 302 304 283 255 254 247 260 257 264 250 262 215 242 282 164 197 185 165 128 283 349 274 357 10 12 302 279 221 268 294 276 246 269 283 295 316 333 336 334 296 194 214 240 256 272 260 330 344 336 346 17 29 0 338 329 313 265 221 206 200 194 188
83 31 11 162 16 350 9 304 322 27 347 280 337 351 336 335 337 355 326 293 259 237 264 286 302 295 288 307 290 265 286 288 275 269 260 251 240 243 229 242 188 189 177 185 190 218 219 288 319 309 283 263 259 324 312 310 300 247 234 265 282 294 333 312 275 19 17 264 251 224 239 359 315 306 317 356 32 32 19 359 337 319 300 246 216 201 195 190